Location: *
(11.7485°N, 79.7483°E)
Time: 02:50:51
(UTC+00:00)

CENTAUR R/B - Pass Details

Date: 22 January 2021
Orbit: 742 x 1446 km, 63.5° (Epoch: 02 March)

Event Time Altitude Azimuth Distance (km) Brightness Sun altitude
Rises 00:07:35 0° 204° (SSW) 3,172 5.1 -14.4°
Reaches altitude 10° 00:09:52 10° 204° (SSW) 2,267 4.4 -13.8°
Maximum altitude 00:14:59 89° 292° (WNW) 797 2.1 -12.6°
Drops below altitude 10° 00:20:42 10° 24° (NNE) 2,521 4.8 -11.3°
Sets 00:23:22 0° 24° (NNE) 3,557 5.5 -10.7°
